Location: Zagreb
(45.8000°N, 16.0000°E)
Time: 12:11:42
(UTC+01:00)

Vanguard 1 Rocket - Pass Details

Date: 02 October 2020
Orbit: 656 x 4221 km, 34.3° (Epoch: 28 October)

Event Time Altitude Azimuth Distance (km) Brightness Sun altitude
Rises 20:42:25 0° 264° (W) 5,555 12.5 -23.0°
Reaches altitude 10° 20:45:28 10° 260° (W) 4,924 11.9 -23.5°
Maximum altitude 21:00:38 56° 187° (S) 3,859 10.3 -25.9°
Enters shadow 21:12:45 34° 131° (SE) 5,387 10.7 -27.9°
Drops below altitude 10° 21:24:52 10° 118° (ESE) 7,422 - -29.8°
Sets 21:30:54 0° 115° (ESE) 8,415 - -30.7°
